| time (UTC) | temp F | wind direction | speed MPH | gust MPH | rain 1hr in | rain 24hr in | rain mn in | humidity % | barometer mb |
| 20260904040201 | 55 | 140 | 5.0 | 9.0 | 0.00 | 0.07 | 0.07 | 90 | 1012.7 |
| 20260904034532 | 55 | 156 | 5.0 | 9.0 | 0.00 | 0.07 | 0.07 | 91 | 1012.6 |
| 20260904033034 | 55 | 152 | 4.0 | 6.0 | 0.00 | 0.07 | 0.07 | 90 | 1012.4 |
| 20260904030030 | 57 | 156 | 3.0 | 4.0 | 0.00 | 0.08 | 0.07 | 89 | 1012.3 |
| 20260904023031 | 57 | 219 | 1.0 | 4.0 | 0.00 | 0.14 | 0.07 | 87 | 1012.1 |
| 20260904021534 | 58 | 337 | 0.0 | 1.0 | 0.00 | 0.17 | 0.07 | 85 | 1012.1 |
| 20260904020035 | 58 | 213 | 0.0 | 3.0 | 0.00 | 0.19 | 0.07 | 85 | 1012.1 |
| 20260904014534 | 59 | 331 | 0.0 | 3.0 | 0.00 | 0.19 | 0.07 | 87 | 1011.9 |
| 20260904013037 | 60 | 67 | 0.0 | 2.0 | 0.02 | 0.19 | 0.07 | 86 | 1011.7 |
| 20260904003037 | 57 | 148 | 4.0 | 9.0 | 0.05 | 0.18 | 0.04 | 85 | 1011.9 |
| 20260904001530 | 58 | 185 | 3.0 | 7.0 | 0.04 | 0.18 | 0.02 | 80 | 1012.1 |
| 20260904000032 | 60 | 203 | 3.0 | 5.0 | 0.02 | 0.16 | 0.00 | 71 | 1012.1 |
| 20260903234531 | 61 | 202 | 4.0 | 7.0 | 0.00 | 0.14 | 0.00 | 66 | 1011.9 |
| 20260903233036 | 63 | 253 | 2.0 | 6.0 | 0.00 | 0.14 | 0.00 | 62 | 1011.8 |
| 20260903231536 | 63 | 260 | 2.0 | 7.0 | 0.00 | 0.14 | 0.00 | 62 | 1011.7 |
| 20260903223142 | 65 | 268 | 3.0 | 9.0 | 0.00 | 0.15 | 0.00 | 59 | 1011.7 |
| 20260903220031 | 67 | 304 | 4.0 | 13.0 | 0.00 | 0.16 | 0.00 | 49 | 1011.4 |
| 20260903214607 | 67 | 311 | 3.0 | 9.0 | 0.00 | 0.16 | 0.00 | 47 | 1011.4 |
| 20260903213033 | 67 | 314 | 4.0 | 9.0 | 0.00 | 0.17 | 0.00 | 48 | 1011.4 |
| 20260903210031 | 66 | 310 | 2.0 | 6.0 | 0.00 | 0.19 | 0.00 | 53 | 1011.6 |
| 20260903204535 | 66 | 338 | 4.0 | 10.0 | 0.00 | 0.20 | 0.00 | 55 | 1011.7 |
| 20260903203107 | 65 | 282 | 1.0 | 5.0 | 0.00 | 0.21 | 0.00 | 56 | 1011.8 |
| 20260903200030 | 64 | 327 | 2.0 | 6.0 | 0.00 | 0.21 | 0.00 | 59 | 1012.3 |
| 20260903194533 | 63 | 327 | 2.0 | 7.0 | 0.00 | 0.22 | 0.00 | 63 | 1012.6 |
| 20260903193030 | 61 | 337 | 2.0 | 6.0 | 0.00 | 0.23 | 0.00 | 74 | 1012.8 |
| 20260903191534 | 60 | 323 | 2.0 | 4.0 | 0.00 | 0.23 | 0.00 | 75 | 1013.0 |
| 20260903183029 | 60 | 275 | 1.0 | 4.0 | 0.00 | 0.23 | 0.00 | 77 | 1013.2 |
| 20260903181538 | 58 | 321 | 2.0 | 5.0 | 0.00 | 0.23 | 0.00 | 80 | 1013.3 |
| 20260903180035 | 57 | 186 | 1.0 | 3.0 | 0.00 | 0.23 | 0.00 | 85 | 1013.5 |
| 20260903174531 | 56 | 276 | 0.0 | 3.0 | 0.00 | 0.23 | 0.00 | 87 | 1013.5 |
| 20260903173106 | 55 | 317 | 1.0 | 4.0 | 0.00 | 0.23 | 0.00 | 89 | 1013.6 |
| 20260903171532 | 55 | 322 | 1.0 | 4.0 | 0.00 | 0.23 | 0.00 | 90 | 1013.6 |
| 20260903170127 | 54 | 331 | 1.0 | 3.0 | 0.00 | 0.23 | 0.00 | 91 | 1013.7 |
| 20260903164529 | 54 | 358 | 1.0 | 3.0 | 0.00 | 0.23 | 0.00 | 91 | 1013.6 |
| 20260903163038 | 53 | 29 | 0.0 | 3.0 | 0.00 | 0.23 | 0.00 | 93 | 1013.7 |
| 20260903160043 | 52 | 22 | 0.0 | 0.0 | 0.00 | 0.23 | 0.00 | 92 | 1013.7 |
| 20260903154530 | 51 | 99 | 2.0 | 5.0 | 0.00 | 0.23 | 0.00 | 91 | 1013.7 |
| 20260903153142 | 51 | 154 | 2.0 | 5.0 | 0.00 | 0.23 | 0.00 | 91 | 1013.9 |
| 20260903151529 | 51 | 135 | 0.0 | 2.0 | 0.00 | 0.23 | 0.00 | 91 | 1013.8 |
| 20260903150031 | 50 | 140 | 3.0 | 5.0 | 0.00 | 0.23 | 0.00 | 91 | 1013.6 |
| 20260903144529 | 50 | 147 | 2.0 | 6.0 | 0.00 | 0.23 | 0.00 | 92 | 1013.6 |
| 20260903143030 | 49 | 158 | 0.0 | 3.0 | 0.00 | 0.23 | 0.00 | 93 | 1013.6 |
| 20260903141605 | 49 | 62 | 1.0 | 9.0 | 0.00 | 0.23 | 0.00 | 92 | 1013.5 |
| 20260903140141 | 49 | 150 | 5.0 | 8.0 | 0.00 | 0.23 | 0.00 | 91 | 1013.3 |
| 20260903134535 | 49 | 145 | 6.0 | 10.0 | 0.00 | 0.23 | 0.00 | 91 | 1013.2 |
| 20260903133033 | 49 | 147 | 4.0 | 7.0 | 0.00 | 0.23 | 0.00 | 92 | 1013.1 |
| 20260903130030 | 48 | 154 | 3.0 | 7.0 | 0.00 | 0.23 | 0.00 | 92 | 1013.0 |
| 20260903124528 | 48 | 122 | 4.0 | 9.0 | 0.00 | 0.23 | 0.00 | 91 | 1012.9 |
| 20260903123032 | 49 | 146 | 7.0 | 12.0 | 0.00 | 0.23 | 0.00 | 91 | 1013.0 |
| 20260903121529 | 49 | 145 | 7.0 | 11.0 | 0.00 | 0.23 | 0.00 | 91 | 1013.0 |
| 20260903120031 | 49 | 148 | 7.0 | 10.0 | 0.00 | 0.23 | 0.00 | 92 | 1013.1 |
| 20260903114637 | 49 | 149 | 7.0 | 11.0 | 0.00 | 0.23 | 0.00 | 93 | 1012.9 |
| 20260903113036 | 49 | 145 | 6.0 | 10.0 | 0.00 | 0.23 | 0.00 | 93 | 1012.9 |
| 20260903111529 | 50 | 146 | 6.0 | 10.0 | 0.00 | 0.23 | 0.00 | 93 | 1012.7 |
| 20260903110104 | 50 | 140 | 5.0 | 9.0 | 0.00 | 0.23 | 0.00 | 94 | 1012.6 |
| 20260903104531 | 50 | 137 | 5.0 | 8.0 | 0.00 | 0.23 | 0.00 | 94 | 1012.4 |
| 20260903103028 | 50 | 146 | 5.0 | 9.0 | 0.00 | 0.23 | 0.00 | 94 | 1012.5 |
| 20260903101530 | 51 | 146 | 4.0 | 8.0 | 0.00 | 0.23 | 0.00 | 94 | 1012.4 |
| 20260903094534 | 51 | 140 | 1.0 | 4.0 | 0.00 | 0.23 | 0.00 | 94 | 1012.4 |
| 20260903093150 | 51 | 137 | 3.0 | 7.0 | 0.00 | 0.23 | 0.00 | 94 | 1012.3 |
| 20260903083032 | 51 | 145 | 2.0 | 6.0 | 0.00 | 0.23 | 0.00 | 94 | 1012.2 |
| 20260903081640 | 51 | 132 | 3.0 | 7.0 | 0.00 | 0.23 | 0.00 | 94 | 1012.2 |
| 20260903074531 | 51 | 96 | 1.0 | 6.0 | 0.00 | 0.23 | 0.00 | 93 | 1011.9 |
| 20260903073035 | 52 | 138 | 5.0 | 9.0 | 0.00 | 0.23 | 0.00 | 94 | 1011.6 |
| 20260903070030 | 52 | 163 | 3.0 | 5.0 | 0.00 | 0.23 | 0.00 | 96 | 1011.6 |
| 20260903064643 | 52 | 121 | 1.0 | 4.0 | 0.00 | 0.23 | 0.23 | 95 | 1011.7 |
| 20260903061531 | 53 | 225 | 1.0 | 2.0 | 0.00 | 0.23 | 0.23 | 96 | 1011.7 |
| 20260903060035 | 53 | 195 | 0.0 | 3.0 | 0.00 | 0.23 | 0.23 | 96 | 1011.6 |
| 20260903054531 | 53 | 156 | 1.0 | 3.0 | 0.00 | 0.23 | 0.23 | 96 | 1011.6 |
| 20260903053032 | 54 | 157 | 0.0 | 0.0 | 0.00 | 0.23 | 0.23 | 96 | 1011.5 |
| 20260903051533 | 54 | 169 | 1.0 | 3.0 | 0.00 | 0.23 | 0.23 | 95 | 1011.5 |
| 20260903044536 | 55 | 225 | 0.0 | 1.0 | 0.00 | 0.23 | 0.23 | 95 | 1011.3 |
| 20260903043029 | 55 | 225 | 0.0 | 1.0 | 0.00 | 0.23 | 0.23 | 95 | 1011.2 |
| 20260903041535 | 56 | 225 | 0.0 | 2.0 | 0.00 | 0.23 | 0.23 | 95 | 1010.9 |